SCP
0 0 0 0 0 0 0 0 0 0 0 0 0 0 0 0 0 0 0 0 0 0 0 0 0 0 -0 -0 0 0 0 0 0 0 0 0 0 0 0 0 0 0 0 0
0 0 0 0 0 0 0 0 0 0 0 0 0 0 0 0 0 0 0 0 0 0 0 0 0 0 0 0 0 0 0 0 0 0 0 0 0 0 0 0 0 0 0 0
0 0 0 0 0 0 0 0 0 0 0 0 0 0 0 0 0 0 0 0 0 0 0 0 0 0 0 0 0 0 0 0 0 0 0 0 0 0 0 0 0 0 0 0
0 0 0 0 0 0 0 0 0 0 0 0 0 0 0 0 0 0 0 0 0 0 0 0 0 0 0 0 0 0 0 0 0 0 0 0 0 0 0 0 0 0 0 0
0 0 0 0 0 0 0 0 0 0 0 0 0 0 0 0 0 0 0 0 0 0 0 0 0 0 0 0 0 0 0 0 0 0 0 0 0 0 0 0 -0 0 0 0
0 0 0 0 0 0 0 0 0 0 0 0 0 0 0 0 0 0 0 0 0 0 0 0 0 0 0 0 0 0 0 0 0 0 0 0 0 0 0 -0 -0 -0 -0 -0
0 0 0 0 0 0 0 0 0 0 0 0 0 0 0 0 0 0 0 0 0 0 0 0 0 0 0 0 0 0 0 0 0 0 0 0 0 0 -0 -0 0 -0 -0 -0
0 0 0 0 0 0 0 0 0 0 0 0 0 0 0 0 0 0 0 0 0 0 0 0 0 0 -0 -0 0 0 0 0 0 0 0 0 0 0 0 0 0 0 0 0
0 0 0 0 0 0 0 0 0 0 0 0 0 0 0 0 0 0 0 0 0 0 0 0 0 -0 -0 -0 0 0 0 0 -0 -0 0 0 0 0 0 0 0 0 0 0
0 0 0 0 0 0 0 0 0 0 0 0 0 0 0 0 0 0 0 0 0 0 0 0 0 -0 -0 -0 -0 -0 0 -0 0 0 0 0 0 0 0 0 0 0 0 0
0 0 0 0 0 0 0 0 0 0 0 0 0 0 0 0 0 0 0 0 0 0 0 0 -0 -0 -0 -0 -0 -0 -0 0 0 0 0 0 0 0 0 0 0 0 0 0
0 0 0 0 0 0 0 0 0 0 0 0 0 0 0 0 0 0 0 0 0 0 0 0 -0 -0 -0 -0 -0 -0 -0 0 0 0 0 0 0 0 0 0 0 0 0 0
0 0 0 0 0 0 0 0 0 0 0 0 0 0 0 0 0 0 0 0 0 0 0 -0 -0 -0 -0 -0 -0 -0 -0 0 0 0 0 0 0 0 0 0 0 0 0 0
0 0 0 0 0 0 0 0 0 0 0 0 0 0 0 0 0 0 0 0 0 0 -0 -0 -0 -0 -0 -0 -0 0 0 0 0 0 0 0 0 0 0 0 0 0 0 0
0 0 0 0 0 0 0 0 0 0 0 0 0 0 0 0 0 0 0 0 0 0 -0 -0 -0 -0 -0 -0 0 0 0 0 0 0 0 0 0 0 0 0 0 0 0 0
0 0 0 0 0 0 0 0 0 0 0 0 0 0 0 0 0 0 0 0 0 0 0 -0 -0 -0 0 0 0 0 0 0 0 0 0 0 0 0 0 0 0 0 0 0
0 0 0 0 0 0 0 0 0 0 0 0 0 0 0 0 0 0 0 0 0 0 0 0 0 0 0 0 0 0 0 0 0 0 0 0 0 0 0 0 0 0 0 0
0 0 0 0 0 0 0 0 0 0 0 0 0 0 0 0 0 0 0 0 0 0 0 0 0 0 0 0 0 0 0 0 0 0 0 0 0 0 0 0 0 0 0 0
0 0 0 0 0 0 0 0 0 0 0 0 0 0 0 0 0 0 0 0 0 0 0 0 0 0 0 0 0 0 0 0 0 0 0 0 0 0 0 0 0 0 0 0
0 0 0 0 0 0 0 0 0 0 0 0 0 0 0 0 0 0 0 0 0 0 0 0 0 0 0 0 0 0 0 0 0 0 0 0 0 0 0 0 0 0 0 0
0 0 0 0 0 0 0 0 0 0 0 0 0 0 0 0 0 0 0 0 0 0 0 0 0 0 0 0 0 0 0 0 0 0 0 0 0 0 0 0 0 0 0 0
0 0 0 0 0 0 0 0 0 0 0 0 0 0 0 0 0 0 0 0 0 0 0 0 0 0 0 0 0 0 0 0 0 0 0 0 0 0 0 0 0 0 0 0
0 0 0 0 0 0 0 0 0 0 0 0 0 0 0 0 0 0 0 0 -0 -0 -0 -0 0 0 0 0 0 0 0 0 0 0 0 0 0 0 0 0 0 0 0 0
0 0 0 0 0 0 0 0 0 0 0 0 0 0 0 0 0 0 0 0 -0 -0 -0 -0 0 0 0 0 0 0 0 0 0 0 0 0 0 0 0 0 0 0 0 0
0 0 0 0 0 0 0 0 0 0 0 0 0 0 0 0 0 0 0 0 0 0 -0 -0 0 0 0 0 0 0 0 0 0 0 0 0 0 0 0 0 0 0 0 0
0 0 0 0 0 0 0 0 0 0 0 0 0 0 0 0 0 0 0 0 0 0 0 0 0 0 0 0 0 0 0 0 0 0 0 0 0 0 0 0 0 0 0 0
Wind_Speed
2 2 5 8 8 7 3 3 4 3 0 2 2 1 2 2 2 3 4 5 6 5 5 6 6 7 6 5 5 5 6 5 5 3 3 2 2 1 2 2 2 2 2 2
2 6 11 5 4 4 4 3 3 1 1 2 2 0 1 2 3 4 4 6 7 6 6 6 6 6 5 5 4 5 5 5 4 3 2 2 3 2 1 1 2 2 2 2
7 8 2 2 2 3 4 5 4 3 2 3 2 1 1 2 1 2 3 3 5 8 9 8 7 6 6 6 6 5 5 5 5 4 3 3 3 3 2 2 2 3 2 1
7 7 2 2 3 4 4 3 4 4 3 1 1 1 4 2 2 3 4 4 5 6 7 7 7 7 6 5 5 5 5 5 4 4 4 4 3 2 1 1 1 2 3 2
6 3 2 3 3 4 3 5 6 4 4 2 1 1 6 1 4 6 6 6 6 6 7 7 8 8 7 6 5 5 5 4 4 4 5 5 4 2 1 2 3 3 3 3
7 3 3 2 3 5 7 6 6 5 5 1 1 2 6 5 7 6 7 7 7 7 7 6 6 7 6 6 5 5 5 4 4 4 5 5 5 4 3 2 2 2 2 2
4 3 2 4 5 2 4 6 4 4 4 4 1 2 8 6 6 8 10 10 9 8 7 7 8 8 8 8 7 6 6 5 4 5 4 4 5 5 4 3 2 1 0 1
3 5 4 4 6 7 4 6 6 4 4 4 1 5 8 4 4 5 6 7 8 8 8 9 9 9 9 9 8 7 7 5 5 5 4 4 4 3 2 3 2 2 1 1
6 5 1 2 3 9 6 4 4 7 2 1 4 6 7 1 2 4 6 7 8 9 9 9 9 9 9 9 9 9 8 6 5 5 4 4 4 4 3 3 2 2 1 1
8 3 2 1 5 4 4 8 5 5 4 2 4 4 5 5 6 7 7 9 9 8 8 8 8 9 8 8 8 7 7 7 6 5 5 4 4 4 3 3 3 2 2 1
5 4 1 1 3 5 4 4 5 4 4 5 3 8 8 10 10 11 11 10 10 10 10 9 8 8 7 7 7 7 7 6 5 6 5 4 4 4 3 3 3 2 2 2
3 5 1 3 1 2 4 7 8 5 4 4 3 9 5 7 8 10 11 10 9 10 9 8 8 8 7 8 7 7 7 7 6 6 5 5 4 3 3 3 3 2 2 2
5 6 3 4 4 1 2 4 4 6 5 5 4 8 3 2 5 7 9 9 8 8 8 7 7 8 9 8 8 7 7 7 6 6 6 5 4 4 4 4 3 3 3 3
6 4 6 8 8 5 4 4 5 6 5 5 8 8 5 4 7 8 8 8 8 9 9 9 8 8 8 8 8 8 7 6 7 6 6 6 5 5 4 4 3 3 3 3
5 4 4 5 4 3 4 5 8 7 8 8 8 8 10 9 11 11 9 8 8 8 9 10 10 9 8 8 7 7 7 6 7 7 6 6 5 4 3 3 3 3 3 4
3 4 2 2 3 3 3 6 7 7 6 7 5 9 9 5 5 7 9 11 11 11 12 11 10 10 10 10 9 8 7 7 7 7 7 5 4 4 4 4 3 3 4 4
1 4 4 2 1 1 5 7 8 6 6 8 9 10 2 3 9 12 13 13 14 14 13 13 13 12 12 11 10 10 9 7 7 7 6 6 5 5 4 4 3 4 4 4
5 4 3 2 1 5 9 3 4 5 6 7 7 7 6 8 7 7 9 13 13 12 12 12 11 10 9 8 8 8 7 8 8 7 6 6 5 5 4 4 4 4 3 4
4 7 5 4 3 6 7 3 4 4 5 6 6 6 4 1 2 2 6 10 12 13 12 12 11 10 9 9 9 9 8 7 7 7 7 6 6 6 5 4 5 4 3 4
4 4 6 4 3 6 8 2 2 3 5 4 5 4 2 5 3 6 5 8 8 7 7 8 8 8 9 8 9 10 9 8 9 8 8 6 6 6 6 6 5 3 3 4
2 3 3 4 4 8 5 1 4 4 7 2 3 3 5 6 5 3 3 5 6 6 7 8 9 9 9 10 10 10 9 10 10 7 6 6 6 6 6 4 4 3 4 4
5 4 4 4 4 8 2 3 6 7 3 1 2 3 4 3 2 0 3 4 6 7 7 8 8 7 6 9 10 10 10 9 7 6 6 6 5 5 4 4 4 3 3 4
5 6 6 8 8 5 3 5 4 3 3 3 2 3 3 3 2 1 2 3 5 6 7 7 8 8 7 8 10 11 9 7 7 6 6 5 4 4 4 4 4 3 3 4
3 2 2 4 8 6 5 5 4 4 4 4 4 3 3 3 3 2 3 3 4 5 6 7 8 8 7 7 8 8 6 7 7 7 6 4 4 4 4 3 4 4 4 5
4 4 2 5 7 6 5 3 3 3 3 3 2 2 3 3 2 3 3 4 4 4 4 6 7 8 7 7 6 5 6 7 7 6 5 4 4 4 4 4 5 6 6 7
4 6 6 6 5 4 5 3 1 1 1 2 1 0 0 3 3 2 3 3 4 5 5 5 5 5 5 6 5 5 6 7 6 5 4 4 4 3 3 4 4 8 9 11
Wind_Direction
111 88 236 228 205 213 220 229 259 271 331 94 123 164 178 172 171 175 178 171 163 164 157 143 137 132 126 124 133 137 134 131 127 118 117 113 102 76 56 50 56 73 91 100
28 257 243 228 201 198 206 222 243 272 39 111 113 135 215 195 204 204 192 178 167 155 145 149 140 135 136 145 142 133 133 131 130 129 133 131 123 105 85 41 44 50 76 110
208 245 241 191 210 192 211 195 208 180 92 59 93 355 252 247 228 225 204 178 169 168 164 159 150 149 149 154 156 150 138 131 126 124 113 96 74 57 45 31 25 13 39 89
232 256 249 242 240 178 237 222 161 137 119 350 85 255 264 222 228 219 203 189 185 173 163 159 153 155 163 160 152 144 139 131 128 129 127 127 125 124 118 72 40 23 32 57
242 232 216 232 237 159 149 82 95 97 108 54 27 164 281 196 224 227 207 197 192 182 173 171 166 164 163 154 150 144 136 131 128 122 121 116 112 119 104 79 69 48 31 38
246 239 209 178 62 109 123 77 61 54 66 346 251 176 270 222 212 208 198 194 192 183 174 168 162 152 149 149 148 140 139 139 135 127 123 131 136 134 122 106 89 53 29 24
289 284 192 125 103 72 96 94 33 356 4 261 258 225 252 240 214 194 188 190 189 182 174 169 167 164 161 159 158 154 153 150 147 139 139 145 146 144 145 147 145 135 76 18
218 275 220 176 164 168 172 142 159 209 236 276 293 245 255 248 211 187 176 178 180 181 181 180 180 174 170 166 163 164 163 161 160 155 155 150 147 144 152 164 169 177 191 224
187 243 273 164 142 136 142 169 154 127 140 292 277 277 298 196 165 171 171 173 185 186 185 185 180 175 171 171 174 174 169 168 170 168 160 159 161 163 172 177 180 191 214 238
164 214 265 147 88 46 127 139 108 122 147 263 292 270 245 220 197 188 187 189 194 186 185 185 181 179 177 175 172 170 170 173 172 169 172 173 177 177 174 171 190 206 229 247
146 167 278 99 168 178 123 112 111 114 148 158 255 272 225 202 192 189 196 195 190 187 188 187 184 177 169 164 166 170 171 168 172 175 177 171 176 175 175 190 206 208 219 229
131 125 211 261 275 166 166 164 149 151 197 173 185 267 263 204 194 189 193 194 193 191 187 181 173 164 165 170 173 175 175 177 180 175 171 176 178 175 184 208 216 211 225 236
136 118 85 350 342 335 167 155 149 125 119 154 179 263 304 186 185 194 194 191 187 183 176 169 167 172 176 177 177 179 181 183 177 169 171 178 184 185 198 212 215 216 226 240
123 128 164 196 218 199 194 177 156 136 149 192 221 250 279 218 200 201 198 191 182 179 177 175 178 182 181 180 179 180 184 179 173 171 174 185 194 196 204 209 215 223 227 240
119 162 206 231 227 182 203 200 179 187 188 189 226 229 246 222 205 201 193 181 175 180 183 185 185 185 180 178 180 179 178 175 171 171 181 197 197 194 200 211 223 233 239 245
97 154 161 242 222 203 235 234 208 211 203 216 242 257 249 231 183 183 182 178 186 193 193 191 187 182 184 185 182 177 179 177 168 178 192 191 184 191 204 215 223 235 249 254
133 135 136 230 289 49 262 230 201 205 204 188 214 239 248 199 195 196 190 187 194 196 192 189 189 189 189 186 177 179 181 168 170 184 190 187 187 196 209 215 218 234 245 248
147 126 131 140 99 229 246 244 194 205 228 212 232 253 235 231 225 205 187 188 196 194 192 192 189 187 184 174 169 166 159 166 176 183 190 190 187 199 206 209 227 238 240 244
156 139 126 135 195 268 288 241 176 187 257 219 229 262 266 220 94 266 206 194 197 192 189 188 184 179 170 168 165 156 161 169 177 188 195 194 190 196 201 215 232 234 235 247
79 103 119 138 174 234 250 228 149 121 276 239 206 233 203 134 158 243 205 189 193 184 176 170 160 153 162 168 157 157 169 176 192 197 198 193 189 193 204 217 225 223 226 245
84 82 128 166 212 256 256 190 124 169 244 276 199 207 186 188 208 247 174 180 176 169 162 154 152 164 174 162 157 167 176 194 200 190 185 185 188 197 207 214 217 224 235 253
172 153 175 157 198 253 234 142 184 219 256 275 234 212 209 232 286 164 155 163 156 152 149 153 159 167 160 157 162 174 194 199 180 172 178 187 193 202 204 207 224 226 230 253
198 189 185 190 216 240 217 221 236 205 230 244 232 235 213 216 228 181 147 149 155 156 156 158 162 159 159 167 171 185 198 173 162 168 183 193 198 205 205 210 223 228 225 239
250 159 175 261 267 258 252 248 243 213 222 243 240 232 197 206 197 160 144 144 156 163 161 157 154 161 172 177 183 191 171 157 162 177 190 192 197 214 219 221 220 223 230 238
231 167 206 260 279 305 296 266 250 226 225 245 253 221 195 188 201 168 157 164 167 157 151 156 162 167 172 168 178 173 160 158 168 181 190 196 205 214 227 232 229 227 231 224
205 186 189 234 243 231 271 297 257 212 233 218 200 358 114 160 191 159 143 152 151 146 135 135 140 146 150 153 168 169 165 163 168 184 197 204 210 217 227 244 265 246 242 250